Location: Houghton
(47.1220°N, 88.5690°W)
Time: 13:28:04
(UTC-05:00)

Envisat - Visible Passes

Search period start: 18 February 2018 00:00
Search period end: 28 February 2018 00:00
Orbit: 764 x 766 km, 98.2° (Epoch: 18 February)

Date Brightness Start Highest point End Pass type
(mag) Time Alt. Az. Time Alt. Az. Time Alt. Az.
18 Feb 4.0 19:08:59 10° ESE 19:13:03 25° ENE 19:17:10 10° N visible
18 Feb 3.8 20:46:53 10° S 20:51:48 49° W 20:56:45 10° NNW visible
19 Feb 2.9 20:09:58 10° SSE 20:15:01 81° ENE 20:20:08 10° NNW visible
19 Feb 5.8 21:51:59 10° WSW 21:54:41 14° W 21:57:24 10° NW visible
20 Feb 3.4 19:33:44 10° SE 19:38:26 40° ENE 19:43:10 10° N visible
20 Feb 4.8 21:13:08 10° SSW 21:17:33 30° W 21:22:00 10° NNW visible
21 Feb 4.2 18:58:20 10° ESE 19:02:03 21° ENE 19:05:47 10° NNE visible
21 Feb 3.4 20:35:37 10° S 20:40:38 62° WSW 20:45:42 10° NNW visible
22 Feb 2.9 19:58:54 10° SSE 20:03:55 65° ENE 20:08:58 10° N visible
22 Feb 5.5 21:40:00 10° SW 21:43:24 18° W 21:46:49 10° NW visible
23 Feb 3.7 19:22:53 10° SE 19:27:23 33° ENE 19:31:53 10° N visible
23 Feb 4.4 21:01:40 10° SSW 21:06:20 36° W 21:11:02 10° NNW visible
24 Feb 3.1 20:24:25 10° S 20:29:28 76° WSW 20:34:35 10° NNW visible
24 Feb 6.1 22:08:51 10° W 22:09:21 10° W 22:09:52 10° W visible
25 Feb 3.1 19:47:53 10° SE 19:52:49 53° ENE 19:57:45 10° N visible
25 Feb 5.2 21:28:14 10° SW 21:32:09 22° W 21:36:05 10° NW visible
26 Feb 3.9 19:12:08 10° ESE 19:16:20 27° ENE 19:20:34 10° N visible
26 Feb 4.0 20:50:17 10° S 20:55:08 45° W 21:00:02 10° NNW visible
27 Feb 2.9 20:13:15 10° SSE 20:18:20 87° ENE 20:23:27 10° NNW visible
27 Feb 5.8 21:55:43 10° WSW 21:58:03 13° W 22:00:24 10° WNW visible
